• In Netherlands
  • List of Countries
  • For 7 days
  • Water Temperature
  • Satellite Maps
  • Weather Map
  • Weather Widgets
  • user-avatar
    Login

    Hourly Weather Wiktoria

    Today, 23 January, Tuesday

    Time Temperature Precipitation Wind Pressure Humidity
    00:00 +22°C° 0 mm 3 mps 744 mmHg 69%
    01:00 +21°C° 0 mm 3 mps 744 mmHg 73%
    02:00 +21°C° 0 mm 3 mps 744 mmHg 74%
    03:00 +20°C° 0 mm 3 mps 744 mmHg 76%
    04:00 +19°C° 0 mm 4 mps 744 mmHg 77%
    05:00 +20°C° 0 mm 4 mps 744 mmHg 75%
    06:00 +21°C° 0 mm 3 mps 745 mmHg 72%
    07:00 +21°C° 0 mm 3 mps 745 mmHg 70%
    08:00 +25°C° 0 mm 3 mps 745 mmHg 60%
    09:00 +28°C° 0 mm 3 mps 745 mmHg 50%
    10:00 +31°C° 0 mm 2 mps 745 mmHg 40%
    11:00 +33°C° 0 mm 3 mps 745 mmHg 36%
    12:00 +35°C° 0 mm 3 mps 744 mmHg 32%
    13:00 +37°C° 0 mm 3 mps 744 mmHg 28%
    14:00 +37°C° 0 mm 3 mps 744 mmHg 28%
    15:00 +38°C° 0 mm 3 mps 743 mmHg 27%
    16:00 +36°C° 0 mm 4 mps 743 mmHg 29%
    17:00 +35°C° 0 mm 4 mps 743 mmHg 32%
    18:00 +33°C° 0 mm 4 mps 743 mmHg 35%
    19:00 +32°C° 0 mm 5 mps 744 mmHg 38%
    20:00 +29°C° 0 mm 5 mps 744 mmHg 43%
    21:00 +27°C° 0 mm 5 mps 744 mmHg 47%
    22:00 +25°C° 0 mm 5 mps 744 mmHg 51%
    23:00 +23°C° 0 mm 4 mps 744 mmHg 55%

    Tomorrow, 24 January, Wednesday

    Time Temperature Precipitation Wind Pressure Humidity
    00:00 +22°C° 0 mm 4 mps 744 mmHg 58%
    01:00 +21°C° 0 mm 4 mps 744 mmHg 62%
    02:00 +21°C° 0.1 mm 3 mps 744 mmHg 65%
    03:00 +20°C° 0.1 mm 2 mps 744 mmHg 69%
    04:00 +20°C° 0.1 mm 2 mps 744 mmHg 72%
    05:00 +21°C° 0 mm 2 mps 744 mmHg 70%
    06:00 +21°C° 0 mm 2 mps 745 mmHg 68%
    07:00 +23°C° 0 mm 2 mps 745 mmHg 66%
    08:00 +26°C° 0 mm 2 mps 745 mmHg 58%
    09:00 +29°C° 0 mm 2 mps 745 mmHg 49%
    10:00 +32°C° 0 mm 2 mps 745 mmHg 41%
    11:00 +35°C° 0 mm 2 mps 744 mmHg 36%
    12:00 +36°C° 0 mm 2 mps 744 mmHg 30%
    13:00 +38°C° 0 mm 2 mps 743 mmHg 25%
    14:00 +39°C° 0 mm 2 mps 743 mmHg 23%
    15:00 +39°C° 0 mm 3 mps 743 mmHg 21%
    16:00 +39°C° 0 mm 3 mps 742 mmHg 20%
    17:00 +38°C° 0 mm 3 mps 742 mmHg 23%
    18:00 +36°C° 0 mm 4 mps 742 mmHg 26%
    19:00 +34°C° 0 mm 4 mps 742 mmHg 30%
    20:00 +32°C° 0 mm 4 mps 743 mmHg 36%
    21:00 +29°C° 0 mm 5 mps 743 mmHg 43%
    22:00 +26°C° 0 mm 5 mps 744 mmHg 50%
    23:00 +26°C° 0 mm 5 mps 744 mmHg 55%

    Day after tomorrow, 25 January, Thursday

    Time Temperature Precipitation Wind Pressure Humidity
    00:00 +25°C° 0 mm 4 mps 744 mmHg 59%
    01:00 +23°C° 0 mm 4 mps 744 mmHg 64%
    02:00 +23°C° 0 mm 4 mps 744 mmHg 65%
    03:00 +23°C° 0 mm 4 mps 744 mmHg 67%
    04:00 +24°C° 0 mm 3 mps 744 mmHg 69%
    05:00 +24°C° 0.1 mm 3 mps 744 mmHg 66%
    06:00 +25°C° 0.1 mm 4 mps 744 mmHg 64%
    07:00 +26°C° 0.1 mm 4 mps 744 mmHg 61%
    08:00 +29°C° 0.1 mm 4 mps 744 mmHg 53%
    09:00 +33°C° 0.1 mm 4 mps 744 mmHg 44%
    10:00 +36°C° 0.1 mm 4 mps 744 mmHg 36%
    11:00 +37°C° 0 mm 4 mps 744 mmHg 32%
    12:00 +40°C° 0 mm 4 mps 744 mmHg 28%
    13:00 +41°C° 0 mm 4 mps 743 mmHg 25%
    14:00 +40°C° 0 mm 3 mps 743 mmHg 25%
    15:00 +40°C° 0 mm 2 mps 742 mmHg 25%
    16:00 +39°C° 0 mm 2 mps 742 mmHg 25%
    17:00 +38°C° 0 mm 2 mps 742 mmHg 27%
    18:00 +37°C° 0 mm 2 mps 742 mmHg 30%
    19:00 +35°C° 0 mm 1 mps 742 mmHg 33%
    20:00 +34°C° 0 mm 2 mps 742 mmHg 37%
    21:00 +32°C° 0 mm 2 mps 743 mmHg 42%
    22:00 +30°C° 0 mm 3 mps 743 mmHg 47%
    23:00 +29°C° 0.1 mm 3 mps 743 mmHg 50%

    26 January, Friday

    Time Temperature Precipitation Wind Pressure Humidity
    00:00 +29°C° 0.1 mm 3 mps 743 mmHg 54%
    01:00 +28°C° 0.1 mm 4 mps 743 mmHg 57%
    02:00 +28°C° 0 mm 4 mps 743 mmHg 58%
    03:00 +27°C° 0 mm 4 mps 743 mmHg 60%
    04:00 +27°C° 0 mm 4 mps 744 mmHg 61%
    05:00 +28°C° 0 mm 4 mps 744 mmHg 60%
    06:00 +28°C° 0 mm 5 mps 744 mmHg 58%
    07:00 +29°C° 0 mm 5 mps 745 mmHg 56%
    08:00 +32°C° 0 mm 5 mps 745 mmHg 50%
    09:00 +35°C° 0 mm 5 mps 745 mmHg 43%
    10:00 +37°C° 0 mm 5 mps 745 mmHg 37%
    11:00 +40°C° 0 mm 5 mps 744 mmHg 33%
    12:00 +41°C° 0 mm 5 mps 744 mmHg 29%
    13:00 +43°C° 0 mm 5 mps 743 mmHg 25%
    14:00 +41°C° 0.1 mm 4 mps 743 mmHg 28%
    15:00 +40°C° 0.1 mm 4 mps 742 mmHg 31%
    16:00 +38°C° 0.1 mm 3 mps 742 mmHg 34%
    17:00 +36°C° 0 mm 5 mps 742 mmHg 40%
    18:00 +35°C° 0 mm 6 mps 742 mmHg 45%
    19:00 +33°C° 0 mm 7 mps 743 mmHg 51%
    20:00 +32°C° 0.1 mm 6 mps 743 mmHg 55%
    21:00 +30°C° 0.1 mm 5 mps 744 mmHg 60%
    22:00 +28°C° 0.1 mm 5 mps 744 mmHg 64%
    23:00 +27°C° 0.1 mm 4 mps 744 mmHg 66%

    27 January, Saturday

    Time Temperature Precipitation Wind Pressure Humidity
    00:00 +27°C° 0.1 mm 4 mps 744 mmHg 68%
    01:00 +26°C° 0.1 mm 4 mps 744 mmHg 70%
    02:00 +26°C° 0 mm 4 mps 744 mmHg 72%
    03:00 +25°C° 0 mm 4 mps 744 mmHg 73%
    04:00 +25°C° 0 mm 3 mps 744 mmHg 75%
    05:00 +26°C° 0 mm 4 mps 744 mmHg 72%
    06:00 +27°C° 0 mm 4 mps 745 mmHg 70%
    07:00 +27°C° 0 mm 5 mps 745 mmHg 67%
    08:00 +30°C° 0 mm 4 mps 745 mmHg 59%
    09:00 +34°C° 0 mm 4 mps 745 mmHg 51%
    10:00 +36°C° 0 mm 4 mps 745 mmHg 42%
    11:00 +38°C° 0 mm 4 mps 745 mmHg 37%
    12:00 +40°C° 0 mm 3 mps 744 mmHg 31%
    13:00 +42°C° 0 mm 3 mps 743 mmHg 26%
    14:00 +42°C° 0 mm 2 mps 743 mmHg 24%
    15:00 +42°C° 0 mm 2 mps 742 mmHg 22%
    16:00 +43°C° 0 mm 2 mps 742 mmHg 20%
    17:00 +41°C° 0 mm 2 mps 742 mmHg 23%
    18:00 +40°C° 0 mm 2 mps 742 mmHg 27%
    19:00 +38°C° 0 mm 2 mps 742 mmHg 30%
    20:00 +37°C° 0 mm 3 mps 742 mmHg 36%
    21:00 +35°C° 0 mm 3 mps 743 mmHg 42%
    22:00 +33°C° 0 mm 3 mps 743 mmHg 48%
    23:00 +32°C° 0 mm 4 mps 743 mmHg 51%

    28 January, Sunday

    Time Temperature Precipitation Wind Pressure Humidity
    00:00 +32°C° 0 mm 5 mps 743 mmHg 54%
    01:00 +30°C° 0 mm 5 mps 743 mmHg 57%
    02:00 +30°C° 0 mm 5 mps 743 mmHg 57%
    03:00 +30°C° 0 mm 5 mps 743 mmHg 57%
    04:00 +30°C° 0 mm 5 mps 743 mmHg 57%
    05:00 +30°C° 0 mm 5 mps 743 mmHg 57%
    06:00 +30°C° 0 mm 5 mps 744 mmHg 56%
    07:00 +32°C° 0 mm 6 mps 744 mmHg 56%
    08:00 +34°C° 0 mm 6 mps 744 mmHg 50%
    09:00 +36°C° 0 mm 6 mps 744 mmHg 44%
    10:00 +39°C° 0 mm 6 mps 744 mmHg 38%
    11:00 +41°C° 0 mm 6 mps 743 mmHg 33%
    12:00 +42°C° 0 mm 6 mps 742 mmHg 29%
    13:00 +45°C° 0 mm 5 mps 742 mmHg 24%
    14:00 +45°C° 0 mm 5 mps 741 mmHg 23%
    15:00 +45°C° 0 mm 5 mps 741 mmHg 22%
    16:00 +45°C° 0 mm 5 mps 740 mmHg 20%
    17:00 +43°C° 0 mm 5 mps 740 mmHg 23%
    18:00 +42°C° 0 mm 5 mps 740 mmHg 25%
    19:00 +41°C° 0 mm 5 mps 740 mmHg 28%
    20:00 +40°C° 0 mm 5 mps 740 mmHg 31%
    21:00 +39°C° 0 mm 5 mps 741 mmHg 33%
    22:00 +37°C° 0 mm 5 mps 741 mmHg 35%
    23:00 +36°C° 0 mm 5 mps 741 mmHg 37%
    Show more